Wind_Speed
75 80 81 80 85 87 83 82 75 73 75 78 81 84 84 79 75 71 69 63 61 54 56 57 67 64 60 65 65 59 69 70 72 66 66 66 69 68 71 75 76 73 74 73 75 79 81
79 80 81 86 88 89 85 85 85 77 77 80 81 82 86 76 77 74 73 73 66 63 58 55 65 65 63 61 59 61 66 72 71 69 71 75 73 73 74 75 76 78 75 78 79 82 89
87 84 83 87 87 88 87 86 84 91 85 81 85 85 83 83 82 79 81 82 75 62 64 53 67 71 67 73 68 67 64 69 74 73 74 76 69 72 75 77 81 83 85 84 84 81 81
92 89 87 88 89 92 93 94 92 90 90 91 90 89 91 89 89 89 87 86 75 64 65 52 62 65 66 72 73 65 70 70 73 72 74 71 71 74 75 78 75 78 80 82 77 82 82
91 91 93 95 98 95 97 95 94 93 94 101 98 93 93 91 91 92 90 84 78 70 56 68 63 62 63 67 68 70 72 69 67 69 75 75 75 77 77 76 75 77 78 71 69 70 66
99 99 98 102 102 103 100 99 101 100 102 101 104 101 94 93 94 88 80 81 77 70 59 65 71 66 67 71 79 69 69 71 71 73 72 75 74 77 77 78 75 74 72 68 63 64 61
103 105 105 105 106 105 107 108 111 109 109 114 110 105 106 99 94 89 84 83 76 64 60 63 66 76 80 77 71 74 75 76 73 73 69 72 73 78 78 79 77 71 69 69 65 66 53
107 110 110 109 109 108 111 114 116 111 111 112 109 102 102 99 93 86 84 80 74 62 64 70 73 73 79 77 73 75 71 71 68 71 75 77 76 74 69 75 70 68 67 63 58 57 49
112 110 109 109 114 113 116 117 121 119 117 117 106 103 96 92 85 85 79 76 70 61 62 75 75 75 80 78 74 82 73 77 78 78 81 80 76 74 70 70 65 64 68 62 61 49 41
114 112 114 115 120 119 120 117 114 112 107 102 98 97 93 89 85 80 78 71 67 63 62 74 80 78 79 80 77 79 80 80 78 78 75 73 77 72 69 71 73 69 64 58 49 44 36
114 120 119 125 124 122 111 106 105 103 102 96 94 93 90 90 82 76 75 70 69 64 63 75 78 81 78 78 77 78 78 78 78 78 76 74 75 75 73 73 73 65 54 51 42 39 32
124 124 125 125 118 110 112 107 108 107 99 98 95 91 89 83 79 73 67 66 69 69 64 75 78 79 79 79 81 82 83 81 79 75 75 75 72 71 72 69 67 56 49 42 36 32 23
125 124 122 115 108 114 115 111 113 107 101 97 91 86 83 76 71 70 69 66 66 66 73 75 78 79 84 87 88 87 85 80 77 74 75 73 72 74 70 69 64 45 43 37 27 13 38
117 120 109 112 115 119 115 114 106 100 97 89 82 79 76 71 69 68 67 64 62 63 72 76 80 81 84 89 86 84 81 80 78 75 77 75 73 73 73 73 49 43 37 32 20 25 43
113 113 113 115 113 116 106 103 100 96 89 80 77 75 74 71 70 67 67 64 65 67 66 74 83 85 89 84 82 81 82 83 82 78 79 78 77 75 73 53 39 39 35 34 28 33 46
115 112 113 116 118 107 100 97 94 88 80 77 77 76 76 74 71 70 66 66 66 66 66 70 78 74 77 82 83 87 85 83 83 82 81 82 79 73 62 45 38 38 37 32 32 39 49
115 113 112 110 101 97 94 90 85 80 76 75 76 78 75 70 67 64 62 62 59 62 63 67 70 69 69 74 77 85 91 92 91 91 92 88 73 60 53 40 37 40 40 36 38 42 52
106 103 97 97 91 90 85 82 79 77 75 76 75 73 68 67 63 62 62 60 58 60 62 60 61 62 67 64 69 71 78 84 84 85 83 73 60 51 49 37 40 41 47 46 42 45 57
97 95 93 88 85 81 78 78 77 76 74 72 68 70 65 62 60 60 59 57 54 56 56 54 56 57 61 57 63 65 66 69 71 71 69 64 59 54 49 40 45 46 54 54 51 49 55
92 88 84 80 78 76 76 76 76 73 68 66 66 68 60 60 59 57 55 54 51 52 53 49 53 54 57 57 56 60 62 61 61 63 62 61 60 58 52 48 50 51 57 59 55 54 55
83 80 76 76 76 75 75 75 73 68 64 64 63 64 61 55 55 51 50 51 46 46 49 45 50 52 54 53 54 56 55 56 56 55 56 60 64 62 55 51 55 57 58 62 60 58 55
74 73 73 73 73 73 72 69 67 64 62 63 62 58 55 53 48 44 41 42 39 40 42 37 44 47 49 51 52 52 45 44 49 50 52 56 60 57 55 53 61 61 60 67 62 60 60
71 71 71 70 70 68 67 65 62 61 62 59 55 52 49 47 41 38 34 35 35 36 37 34 38 40 44 50 47 47 44 43 46 47 50 54 56 57 57 56 64 64 62 64 65 62 62
68 67 66 65 65 64 63 60 59 59 58 53 49 46 44 40 35 31 32 33 34 32 31 31 32 36 39 43 42 44 43 44 46 50 52 56 54 51 55 57 62 68 62 67 67 68 64
63 63 63 62 62 61 59 57 56 55 52 46 43 41 39 34 30 28 32 29 33 27 29 28 30 34 36 38 41 41 44 46 47 50 51 53 52 51 54 56 64 66 63 67 70 71 70
60 60 59 59 59 57 56 54 52 49 45 42 38 35 31 31 24 27 29 27 29 26 27 27 30 32 35 39 40 38 42 47 47 48 48 50 53 53 54 58 62 63 65 66 71 69 74
58 57 56 57 56 53 51 50 47 43 40 38 32 29 28 26 25 25 24 25 25 24 26 27 32 32 34 33 34 37 41 45 45 47 45 45 49 54 57 58 62 63 65 64 73 70 71
56 54 54 53 51 49 48 46 42 38 34 31 28 26 24 24 24 22 21 23 25 27 25 31 32 30 34 35 35 36 37 41 43 44 43 44 48 55 58 59 65 62 67 66 74 74 74
54 51 49 48 47 46 44 41 38 33 29 27 24 24 21 22 20 19 18 23 25 26 26 26 25 27 30 32 35 37 38 41 42 42 43 45 45 48 54 60 61 60 66 67 73 80 77
Wind_Direction
286 288 288 290 292 294 293 295 298 299 286 282 279 281 279 278 278 278 277 278 281 288 279 278 266 268 268 267 259 260 260 259 258 263 266 266 262 265 266 271 271 274 273 276 277 278 277
283 289 288 286 289 292 292 293 293 296 293 285 279 281 280 278 279 276 279 277 280 280 286 279 265 266 263 263 260 261 265 264 266 269 266 270 272 272 273 275 275 272 272 274 272 272 276
284 286 286 287 288 289 290 290 292 293 294 285 279 277 279 274 274 276 280 278 282 283 292 270 261 265 263 261 269 264 267 270 266 274 277 278 278 282 277 281 280 276 275 275 275 278 279
283 287 287 287 288 290 290 289 291 291 291 293 284 282 274 274 274 275 277 279 283 286 293 266 254 256 262 256 264 261 269 272 273 274 276 274 279 286 285 286 287 286 285 283 283 282 282
279 284 286 287 288 287 289 291 291 291 290 293 291 286 279 275 275 274 277 279 283 289 280 261 263 264 256 263 264 260 263 269 268 275 277 277 278 278 279 284 291 290 290 289 286 283 286
280 284 286 288 289 290 289 289 290 290 289 290 289 289 284 277 277 277 279 282 283 289 271 252 250 258 258 252 260 265 265 267 267 270 273 274 277 277 280 286 289 289 285 284 288 283 281
287 288 288 289 290 290 289 290 290 289 290 291 290 287 287 283 279 279 282 285 286 285 264 250 249 252 252 252 257 264 261 268 265 264 267 274 277 278 284 288 292 286 280 283 286 288 277
287 287 288 288 287 288 289 289 290 290 290 290 288 285 287 283 282 282 283 285 287 275 257 253 250 247 250 252 261 260 261 261 261 262 270 273 278 282 284 288 286 283 283 288 289 280 272
285 286 287 286 285 285 286 288 289 289 290 290 287 286 286 285 286 286 287 288 281 271 253 253 245 246 251 252 251 258 256 257 263 269 270 273 275 279 282 286 284 285 285 287 284 272 267
283 285 285 285 286 287 288 287 288 289 292 289 287 288 289 289 289 287 289 282 275 267 254 244 249 246 247 250 249 252 254 259 260 265 268 270 273 277 283 283 286 290 289 285 275 263 258
281 282 283 284 286 287 287 289 290 292 296 294 292 293 292 291 290 287 283 278 273 264 256 248 249 248 245 246 249 252 253 256 259 262 267 268 273 276 278 285 288 293 284 278 268 264 253
280 282 284 285 284 285 291 291 293 295 295 294 294 294 291 290 289 286 280 272 267 265 252 247 245 243 245 246 248 251 253 255 256 258 263 267 271 273 278 285 291 291 276 270 266 259 209
279 282 284 284 287 289 291 293 296 296 294 291 290 289 287 286 283 280 279 275 269 264 256 251 246 244 243 245 247 249 250 253 252 253 259 264 267 273 278 284 291 272 266 266 261 209 182
279 282 285 288 291 292 290 291 292 291 292 291 290 289 287 286 283 280 278 275 269 263 258 255 248 246 244 243 244 246 248 248 250 253 256 262 267 271 276 282 275 256 256 255 241 185 184
281 283 284 287 289 292 291 291 290 291 292 292 292 289 288 286 284 281 277 274 268 262 257 256 253 249 248 249 247 248 247 248 251 255 255 261 267 270 275 276 252 247 244 234 225 194 185
283 283 286 287 288 288 288 288 290 291 292 293 291 289 288 286 283 281 279 273 268 264 260 257 257 254 251 251 248 247 249 251 252 254 257 259 263 269 269 263 242 240 232 222 215 196 187
283 283 285 286 287 288 288 289 290 291 293 291 290 288 287 286 284 281 277 272 269 266 261 258 257 256 252 251 251 248 248 246 249 253 257 259 260 258 255 250 232 230 219 207 203 197 190
285 285 284 285 287 287 288 289 291 292 291 291 289 288 286 285 284 281 277 273 269 265 262 260 258 254 254 248 250 250 248 248 248 251 254 255 251 247 244 236 222 223 209 200 203 202 194
283 283 284 286 287 287 289 289 290 290 291 290 289 287 286 286 283 279 276 273 269 265 263 259 257 253 252 249 245 245 244 245 246 245 248 248 249 247 244 230 218 216 206 203 205 202 199
283 283 284 285 286 287 288 289 289 291 291 291 289 287 288 286 282 281 279 275 270 266 263 258 254 251 249 246 242 243 240 241 242 240 243 242 244 245 240 230 216 214 208 206 203 203 201
279 281 283 285 288 290 289 289 291 291 291 289 289 289 288 284 283 281 278 274 270 264 261 256 251 247 245 245 243 238 237 238 240 237 236 236 237 241 235 220 213 215 208 204 201 207 200
278 280 282 284 285 286 286 288 290 292 291 290 290 289 288 286 284 281 273 270 266 260 255 248 246 245 242 240 239 240 236 233 235 235 232 229 231 230 230 212 208 213 209 203 201 206 202
278 280 281 283 284 285 286 289 291 291 290 290 289 287 287 285 284 277 272 266 259 257 254 245 240 238 235 233 234 234 230 225 225 227 228 227 225 223 224 210 206 212 211 203 203 201 206
276 279 280 282 283 286 287 290 292 290 289 289 289 288 286 284 281 277 273 267 262 255 253 247 236 232 231 231 229 227 222 221 220 220 221 222 221 219 220 210 207 212 212 203 201 201 201
276 278 280 282 284 287 289 292 290 289 289 290 288 288 285 284 280 276 266 260 258 254 249 244 235 227 222 222 222 220 215 213 217 219 220 220 218 214 217 210 210 210 213 207 206 203 202
276 279 281 283 286 288 291 289 289 289 290 290 288 284 283 281 278 265 260 251 253 247 241 232 233 224 219 220 215 212 212 211 210 215 217 219 217 213 213 210 209 208 213 208 205 205 206
277 279 281 283 286 289 288 288 288 288 289 287 285 283 280 277 270 265 258 249 243 237 232 224 222 215 215 213 212 208 211 209 209 211 213 217 214 212 213 212 210 210 214 211 205 207 206
276 278 281 283 286 287 286 286 286 287 283 281 282 279 275 270 266 261 253 245 237 230 226 222 220 214 209 203 202 202 208 207 209 209 209 215 215 214 212 213 211 211 215 214 209 206 209
274 277 279 282 284 283 283 284 284 282 279 277 276 271 269 265 259 251 245 244 236 229 223 225 219 208 207 204 201 197 199 203 204 207 209 212 214 215 213 212 213 214 216 218 212 211 213
Height
10683 10681 10678 10673 10669 10666 10661 10658 10655 10653 10650 10646 10643 10640 10638 10634 10631 10629 10629 10625 10625 10625 10624 10625 10625 10626 10626 10625 10624 10632 10626 10627 10628 10627 10627 10627 10627 10630 10631 10631 10627 10632 10631 10634 10633 10627 10622
10667 10663 10660 10656 10652 10649 10645 10642 10637 10635 10632 10629 10625 10622 10619 10616 10614 10613 10611 10609 10606 10606 10606 10605 10608 10610 10610 10607 10614 10613 10611 10612 10612 10611 10610 10611 10611 10613 10614 10613 10613 10614 10619 10619 10614 10612 10605
10647 10645 10642 10638 10634 10630 10627 10624 10620 10617 10614 10610 10605 10602 10598 10597 10597 10593 10591 10589 10585 10586 10584 10585 10589 10591 10593 10587 10596 10597 10597 10596 10596 10594 10592 10595 10595 10597 10597 10594 10594 10595 10599 10602 10598 10590 10590
10628 10626 10621 10619 10614 10610 10607 10604 10601 10597 10593 10588 10584 10578 10576 10575 10576 10570 10568 10566 10564 10566 10561 10563 10568 10570 10573 10575 10577 10581 10579 10579 10581 10582 10578 10581 10581 10580 10579 10577 10576 10579 10580 10581 10574 10571 10568
10607 10603 10600 10596 10592 10589 10585 10581 10578 10574 10569 10564 10560 10556 10553 10549 10549 10548 10546 10540 10541 10541 10541 10546 10550 10551 10552 10558 10558 10561 10563 10566 10564 10564 10561 10564 10566 10566 10563 10561 10563 10558 10562 10563 10562 10552 10550
10584 10579 10574 10571 10566 10564 10561 10558 10555 10550 10544 10539 10534 10530 10525 10525 10523 10522 10521 10513 10516 10519 10521 10526 10531 10533 10538 10539 10539 10543 10546 10550 10548 10548 10546 10547 10552 10550 10547 10547 10548 10545 10542 10544 10544 10536 10532
10557 10553 10551 10547 10545 10541 10537 10533 10530 10525 10519 10513 10507 10503 10500 10500 10500 10500 10498 10490 10490 10494 10498 10503 10510 10512 10514 10518 10522 10524 10528 10530 10530 10533 10531 10533 10534 10530 10532 10531 10530 10529 10526 10527 10526 10522 10518
10533 10531 10528 10524 10520 10516 10511 10507 10503 10500 10493 10489 10482 10478 10474 10475 10476 10477 10474 10466 10464 10471 10482 10482 10488 10496 10490 10499 10507 10500 10512 10512 10512 10513 10515 10517 10516 10516 10515 10516 10515 10512 10511 10509 10510 10505 10506
10513 10509 10505 10500 10496 10491 10487 10484 10479 10473 10466 10462 10456 10454 10450 10449 10448 10451 10448 10442 10440 10446 10462 10453 10465 10473 10473 10480 10487 10477 10495 10493 10495 10498 10498 10502 10500 10500 10500 10500 10500 10499 10498 10494 10492 10489 10494
10490 10487 10482 10477 10472 10468 10464 10458 10454 10448 10441 10436 10432 10430 10426 10422 10423 10424 10421 10419 10419 10424 10436 10438 10437 10452 10454 10455 10463 10464 10470 10475 10479 10479 10482 10486 10483 10485 10486 10485 10488 10488 10480 10476 10476 10474 10483
10469 10464 10460 10455 10451 10445 10440 10434 10428 10424 10418 10413 10407 10404 10399 10395 10397 10402 10397 10395 10396 10402 10415 10412 10418 10422 10431 10436 10441 10446 10451 10455 10458 10461 10467 10468 10468 10470 10471 10471 10473 10474 10463 10463 10463 10464 10472
10446 10442 10438 10432 10426 10419 10413 10410 10402 10398 10395 10391 10384 10380 10373 10376 10375 10374 10372 10373 10375 10378 10391 10388 10393 10400 10409 10415 10421 10425 10430 10434 10440 10445 10449 10452 10455 10454 10456 10457 10458 10460 10452 10452 10453 10455 10461
10422 10419 10416 10409 10402 10396 10390 10384 10380 10375 10371 10368 10365 10358 10352 10355 10355 10351 10348 10351 10355 10360 10359 10364 10374 10382 10388 10392 10395 10401 10407 10414 10421 10429 10432 10436 10437 10440 10445 10446 10446 10446 10443 10444 10446 10450 10454
10398 10395 10391 10386 10381 10374 10367 10361 10357 10353 10350 10344 10338 10333 10329 10331 10331 10330 10328 10331 10336 10337 10333 10338 10348 10353 10362 10363 10373 10379 10390 10396 10402 10410 10413 10419 10423 10426 10430 10436 10435 10435 10435 10438 10443 10446 10450
10378 10371 10368 10364 10357 10352 10343 10338 10333 10329 10326 10323 10316 10310 10306 10310 10307 10308 10308 10312 10311 10310 10315 10312 10314 10330 10338 10344 10360 10364 10370 10377 10386 10395 10398 10402 10406 10412 10417 10422 10423 10424 10427 10431 10436 10442 10449
10356 10350 10346 10342 10336 10328 10323 10317 10310 10306 10304 10302 10295 10288 10286 10285 10285 10283 10286 10284 10285 10288 10294 10293 10288 10313 10321 10324 10336 10341 10346 10361 10369 10374 10380 10385 10392 10400 10404 10409 10413 10414 10419 10423 10430 10438 10446
10332 10328 10323 10319 10313 10307 10300 10294 10289 10286 10285 10281 10275 10266 10265 10264 10261 10262 10263 10262 10266 10267 10270 10273 10277 10288 10299 10306 10309 10319 10332 10342 10349 10354 10361 10369 10380 10386 10389 10396 10401 10406 10412 10417 10425 10434 10443
10308 10303 10298 10295 10290 10285 10278 10273 10269 10267 10266 10261 10255 10243 10245 10242 10244 10241 10241 10241 10246 10246 10246 10253 10259 10269 10272 10287 10291 10302 10309 10316 10327 10335 10343 10353 10362 10370 10375 10385 10390 10396 10403 10411 10419 10427 10435
10286 10280 10276 10273 10268 10263 10259 10254 10251 10249 10248 10241 10235 10221 10226 10226 10224 10221 10220 10220 10225 10223 10227 10237 10241 10248 10252 10264 10271 10278 10288 10297 10306 10317 10324 10336 10346 10355 10364 10373 10377 10385 10394 10403 10412 10421 10431
10260 10258 10255 10252 10248 10245 10241 10236 10233 10231 10227 10221 10215 10204 10209 10207 10203 10202 10200 10199 10204 10204 10207 10219 10223 10230 10233 10241 10250 10258 10270 10279 10288 10299 10308 10319 10329 10339 10349 10358 10365 10374 10382 10393 10403 10413 10423
10242 10238 10237 10233 10227 10225 10222 10217 10214 10211 10209 10202 10197 10191 10188 10191 10184 10184 10184 10180 10186 10189 10190 10203 10203 10209 10216 10226 10233 10240 10253 10264 10272 10283 10293 10301 10311 10319 10328 10340 10351 10361 10371 10383 10394 10404 10416
10222 10220 10219 10217 10213 10210 10206 10201 10197 10194 10189 10183 10179 10176 10171 10168 10170 10169 10169 10167 10170 10174 10177 10188 10189 10195 10202 10210 10218 10225 10240 10252 10261 10269 10279 10287 10294 10305 10314 10326 10338 10349 10359 10372 10386 10397 10408
10205 10204 10203 10200 10197 10193 10189 10186 10182 10177 10171 10167 10165 10161 10157 10154 10156 10154 10156 10155 10156 10159 10164 10172 10176 10183 10189 10194 10204 10214 10227 10237 10247 10256 10264 10271 10279 10289 10299 10314 10327 10335 10345 10363 10377 10387 10398
10189 10187 10186 10183 10180 10178 10175 10171 10167 10161 10156 10153 10150 10146 10143 10142 10142 10143 10142 10143 10144 10148 10152 10158 10165 10170 10176 10184 10193 10201 10213 10225 10235 10241 10247 10255 10267 10279 10288 10303 10316 10322 10338 10353 10364 10376 10391
10173 10171 10170 10168 10165 10163 10159 10157 10152 10147 10142 10140 10137 10135 10131 10130 10131 10131 10129 10132 10133 10140 10142 10147 10152 10158 10165 10171 10179 10189 10201 10211 10220 10229 10238 10247 10260 10270 10278 10292 10302 10315 10328 10341 10354 10369 10380
10157 10156 10155 10153 10151 10149 10145 10141 10138 10134 10129 10127 10126 10123 10121 10120 10122 10119 10119 10123 10124 10129 10133 10138 10142 10148 10155 10161 10168 10182 10191 10201 10211 10219 10229 10239 10248 10260 10267 10278 10292 10306 10315 10330 10345 10358 10367
10142 10142 10141 10138 10137 10135 10132 10128 10125 10123 10120 10115 10115 10114 10112 10112 10111 10111 10114 10115 10117 10120 10124 10130 10133 10141 10148 10156 10165 10174 10184 10194 10203 10212 10223 10231 10239 10249 10258 10271 10284 10293 10305 10319 10336 10345 10359
10127 10127 10126 10125 10123 10121 10118 10116 10113 10112 10110 10108 10106 10105 10105 10104 10103 10106 10109 10110 10110 10113 10119 10123 10128 10136 10142 10151 10158 10168 10177 10187 10196 10206 10216 10222 10230 10238 10251 10260 10268 10287 10296 10308 10323 10333 10346
10113 10113 10113 10112 10111 10109 10107 10105 10103 10102 10101 10100 10100 10099 10099 10098 10100 10101 10103 10105 10106 10109 10114 10120 10127 10133 10141 10148 10155 10162 10170 10179 10189 10198 10208 10215 10223 10232 10242 10251 10265 10280 10289 10298 10310 10323 10333